When you browse on this site, cookies collect data to enhance your experience and personalize the content and advertising you see.
Visit our Privacy Policy to learn more. By continuing to use the site, you agree to this use of cookies and data.
  • In Österreich
  • Länderverzeichnis
  • Für 7 Tage
  • Wassertemperatur
  • Satellitenkarten
  • Wetterkarte
  • News
  • Widgets
  • user-avatar
    Anmelden

    Stündliche Wetter Malanje

    Heute, 16 Februar, Samstag

    Zeit Temperatur Niederschläge Wind Luftdruck Luftfeuchtigkeit
    00:00 +19°C° 2 mm 0 m/S 666 mmHg 94%
    01:00 +20°C° 0 mm 1 m/S 666 mmHg 96%
    02:00 +20°C° 0.3 mm 1 m/S 666 mmHg 97%
    03:00 +20°C° 0.3 mm 1 m/S 666 mmHg 97%
    04:00 +20°C° 0.3 mm 1 m/S 666 mmHg 98%
    05:00 +18°C° 0 mm 0 m/S 666 mmHg 97%
    06:00 +18°C° 0 mm 0 m/S 666 mmHg 96%
    07:00 +19°C° 0 mm 0 m/S 667 mmHg 94%
    08:00 +22°C° 0 mm 0 m/S 667 mmHg 86%
    09:00 +24°C° 0 mm 0 m/S 668 mmHg 78%
    10:00 +28°C° 0 mm 1 m/S 668 mmHg 70%
    11:00 +29°C° 0 mm 1 m/S 668 mmHg 65%
    12:00 +30°C° 0 mm 1 m/S 667 mmHg 60%
    13:00 +31°C° 0 mm 1 m/S 667 mmHg 55%
    14:00 +31°C° 0.7 mm 1 m/S 666 mmHg 60%
    15:00 +30°C° 0.7 mm 1 m/S 666 mmHg 66%
    16:00 +29°C° 0.7 mm 1 m/S 665 mmHg 71%
    17:00 +27°C° 1.3 mm 1 m/S 665 mmHg 78%
    18:00 +25°C° 1.3 mm 1 m/S 665 mmHg 85%
    19:00 +22°C° 1.3 mm 1 m/S 665 mmHg 92%
    20:00 +22°C° 0.3 mm 1 m/S 665 mmHg 92%
    21:00 +22°C° 0.3 mm 1 m/S 666 mmHg 92%
    22:00 +19°C° 0.3 mm 0 m/S 666 mmHg 93%
    23:00 +19°C° 0 mm 0 m/S 666 mmHg 93%

    Morgen, 17 Februar, Sonntag

    Zeit Temperatur Niederschläge Wind Luftdruck Luftfeuchtigkeit
    00:00 +21°C° 0 mm 1 m/S 666 mmHg 93%
    01:00 +21°C° 0 mm 1 m/S 665 mmHg 94%
    02:00 +20°C° 0 mm 1 m/S 665 mmHg 95%
    03:00 +20°C° 0 mm 1 m/S 665 mmHg 97%
    04:00 +20°C° 0 mm 1 m/S 665 mmHg 98%
    05:00 +20°C° 0 mm 1 m/S 665 mmHg 98%
    06:00 +20°C° 0 mm 1 m/S 665 mmHg 98%
    07:00 +21°C° 0 mm 1 m/S 666 mmHg 98%
    08:00 +23°C° 0 mm 1 m/S 666 mmHg 90%
    09:00 +25°C° 0 mm 1 m/S 667 mmHg 83%
    10:00 +27°C° 0 mm 1 m/S 667 mmHg 76%
    11:00 +28°C° 0.1 mm 1 m/S 667 mmHg 69%
    12:00 +30°C° 0.1 mm 1 m/S 667 mmHg 63%
    13:00 +32°C° 0.1 mm 1 m/S 666 mmHg 56%
    14:00 +31°C° 0.2 mm 1 m/S 666 mmHg 62%
    15:00 +30°C° 0.2 mm 1 m/S 665 mmHg 68%
    16:00 +29°C° 0.2 mm 1 m/S 664 mmHg 74%
    17:00 +27°C° 0.8 mm 1 m/S 664 mmHg 80%
    18:00 +24°C° 0.8 mm 1 m/S 664 mmHg 86%
    19:00 +21°C° 0.8 mm 2 m/S 664 mmHg 92%
    20:00 +21°C° 0.2 mm 2 m/S 665 mmHg 93%
    21:00 +21°C° 0.2 mm 1 m/S 665 mmHg 94%
    22:00 +21°C° 0.2 mm 1 m/S 666 mmHg 95%
    23:00 +20°C° 0 mm 2 m/S 666 mmHg 95%

    übermorgen, 18 Februar, Montag

    Zeit Temperatur Niederschläge Wind Luftdruck Luftfeuchtigkeit
    00:00 +19°C° 0 mm 2 m/S 665 mmHg 96%
    01:00 +19°C° 0 mm 2 m/S 665 mmHg 97%
    02:00 +18°C° 0 mm 2 m/S 665 mmHg 97%
    03:00 +18°C° 0 mm 2 m/S 665 mmHg 97%
    04:00 +17°C° 0 mm 2 m/S 664 mmHg 97%
    05:00 +18°C° 0 mm 2 m/S 665 mmHg 97%
    06:00 +18°C° 0 mm 2 m/S 665 mmHg 96%
    07:00 +18°C° 0 mm 2 m/S 665 mmHg 96%
    08:00 +20°C° 0 mm 2 m/S 666 mmHg 89%
    09:00 +23°C° 0 mm 2 m/S 666 mmHg 82%
    10:00 +25°C° 0 mm 2 m/S 666 mmHg 75%
    11:00 +26°C° 0.5 mm 2 m/S 666 mmHg 75%
    12:00 +27°C° 0.5 mm 2 m/S 665 mmHg 76%
    13:00 +28°C° 0.5 mm 3 m/S 664 mmHg 76%
    14:00 +27°C° 1 mm 2 m/S 664 mmHg 78%
    15:00 +27°C° 1 mm 2 m/S 664 mmHg 80%
    16:00 +26°C° 1 mm 2 m/S 663 mmHg 82%
    17:00 +25°C° 0.8 mm 2 m/S 663 mmHg 86%
    18:00 +24°C° 0.8 mm 2 m/S 664 mmHg 89%
    19:00 +21°C° 0.8 mm 2 m/S 664 mmHg 92%
    20:00 +21°C° 2 mm 2 m/S 665 mmHg 93%
    21:00 +20°C° 2 mm 2 m/S 665 mmHg 94%
    22:00 +20°C° 2 mm 2 m/S 666 mmHg 95%
    23:00 +20°C° 2.6 mm 2 m/S 665 mmHg 95%

    19 Februar, Dienstag

    Zeit Temperatur Niederschläge Wind Luftdruck Luftfeuchtigkeit
    00:00 +20°C° 2.6 mm 2 m/S 665 mmHg 96%
    01:00 +20°C° 2.6 mm 2 m/S 665 mmHg 97%
    02:00 +19°C° 0.3 mm 2 m/S 664 mmHg 98%
    03:00 +19°C° 0.3 mm 2 m/S 664 mmHg 98%
    04:00 +19°C° 0.3 mm 2 m/S 664 mmHg 98%
    05:00 +19°C° 0 mm 2 m/S 664 mmHg 98%
    06:00 +19°C° 0 mm 2 m/S 665 mmHg 98%
    07:00 +20°C° 0 mm 1 m/S 665 mmHg 98%
    08:00 +21°C° 0.2 mm 2 m/S 666 mmHg 94%
    09:00 +23°C° 0.2 mm 2 m/S 666 mmHg 91%
    10:00 +24°C° 0.2 mm 2 m/S 666 mmHg 87%
    11:00 +25°C° 1.3 mm 2 m/S 666 mmHg 85%
    12:00 +25°C° 1.3 mm 2 m/S 665 mmHg 84%
    13:00 +26°C° 1.3 mm 3 m/S 664 mmHg 82%
    14:00 +26°C° 0.6 mm 2 m/S 664 mmHg 81%
    15:00 +26°C° 0.6 mm 2 m/S 663 mmHg 81%
    16:00 +26°C° 0.6 mm 2 m/S 663 mmHg 81%
    17:00 +24°C° 0.6 mm 2 m/S 663 mmHg 84%
    18:00 +23°C° 0.6 mm 1 m/S 663 mmHg 88%
    19:00 +21°C° 0.6 mm 1 m/S 663 mmHg 92%
    20:00 +21°C° 0.2 mm 1 m/S 664 mmHg 91%
    21:00 +21°C° 0.2 mm 1 m/S 664 mmHg 91%
    22:00 +19°C° 0.2 mm 0 m/S 665 mmHg 90%
    23:00 +20°C° 0 mm 1 m/S 664 mmHg 91%

    20 Februar, Mittwoch

    Zeit Temperatur Niederschläge Wind Luftdruck Luftfeuchtigkeit
    00:00 +20°C° 0 mm 1 m/S 664 mmHg 91%
    01:00 +20°C° 0 mm 1 m/S 663 mmHg 92%
    02:00 +20°C° 0 mm 1 m/S 663 mmHg 93%
    03:00 +17°C° 0 mm 0 m/S 663 mmHg 94%
    04:00 +17°C° 0 mm 0 m/S 663 mmHg 95%
    05:00 +18°C° 0 mm 0 m/S 663 mmHg 95%
    06:00 +18°C° 0 mm 0 m/S 664 mmHg 94%
    07:00 +19°C° 0 mm 0 m/S 665 mmHg 93%
    08:00 +21°C° 0 mm 0 m/S 666 mmHg 84%
    09:00 +24°C° 0 mm 0 m/S 666 mmHg 76%
    10:00 +26°C° 0 mm 0 m/S 667 mmHg 67%
    11:00 +29°C° 0 mm 1 m/S 667 mmHg 63%
    12:00 +30°C° 0 mm 1 m/S 666 mmHg 58%
    13:00 +31°C° 0 mm 1 m/S 665 mmHg 53%
    14:00 +31°C° 0 mm 1 m/S 665 mmHg 55%
    15:00 +30°C° 0 mm 1 m/S 664 mmHg 57%
    16:00 +30°C° 0 mm 1 m/S 664 mmHg 59%
    17:00 +28°C° 0.1 mm 1 m/S 664 mmHg 66%
    18:00 +26°C° 0.1 mm 1 m/S 664 mmHg 73%
    19:00 +24°C° 0.1 mm 1 m/S 664 mmHg 79%
    20:00 +23°C° 0 mm 1 m/S 665 mmHg 81%
    21:00 +20°C° 0 mm 0 m/S 665 mmHg 83%
    22:00 +19°C° 0 mm 0 m/S 665 mmHg 84%
    23:00 +19°C° 0 mm 0 m/S 665 mmHg 85%

    21 Februar, Donnerstag

    Zeit Temperatur Niederschläge Wind Luftdruck Luftfeuchtigkeit
    00:00 +19°C° 0 mm 0 m/S 665 mmHg 86%
    01:00 +19°C° 0 mm 0 m/S 664 mmHg 86%
    02:00 +18°C° 0 mm 0 m/S 664 mmHg 89%
    03:00 +18°C° 0 mm 0 m/S 664 mmHg 92%
    04:00 +18°C° 0 mm 0 m/S 664 mmHg 94%
    05:00 +20°C° 0 mm 1 m/S 664 mmHg 94%
    06:00 +20°C° 0 mm 1 m/S 665 mmHg 93%
    07:00 +21°C° 0 mm 1 m/S 665 mmHg 92%
    08:00 +23°C° 0.6 mm 1 m/S 666 mmHg 89%
    09:00 +24°C° 0.6 mm 1 m/S 666 mmHg 85%
    10:00 +26°C° 0.6 mm 1 m/S 667 mmHg 82%
    11:00 +28°C° 0.2 mm 1 m/S 666 mmHg 73%
    12:00 +30°C° 0.2 mm 1 m/S 666 mmHg 64%
    13:00 +30°C° 0.2 mm 0 m/S 666 mmHg 55%
    14:00 +30°C° 0 mm 0 m/S 665 mmHg 55%
    15:00 +29°C° 0 mm 0 m/S 665 mmHg 56%
    16:00 +28°C° 0 mm 0 m/S 664 mmHg 57%
    17:00 +28°C° 0 mm 1 m/S 664 mmHg 64%
    18:00 +26°C° 0 mm 1 m/S 665 mmHg 70%
    19:00 +24°C° 0 mm 1 m/S 665 mmHg 77%
    20:00 +23°C° 1.3 mm 1 m/S 665 mmHg 83%
    21:00 +22°C° 1.3 mm 1 m/S 666 mmHg 88%
    22:00 +22°C° 1.3 mm 1 m/S 666 mmHg 94%
    23:00 +21°C° 0.1 mm 1 m/S 666 mmHg 95%
    Mehr zeigen